Tracking 17884 objects as of 3-December-2016
HD Live streaming from Space Station
objects crossing your sky now

COSMOS 1018

Track COSMOS 1018 now!
10-day predictions
COSMOS 1018 is classified as:


NORAD ID: 10935
Int'l Code: 1978-056F
Perigee: 1,448.6 km
Apogee: 1,495.9 km
Inclination: 74.0 °
Period: 115.2 minutes
Semi major axis: 7843 km
RCS: 0.7262 m2 (medium)
Launch date: June 7, 1978
Source: Commonwealth of Independent States (former USSR) (CIS)
Launch site: PLESETSK MISSILE AND SPACE COMPLEX (PKMTR)
Your satellite tracking list
Your tracking list is empty





NASA's NSSDC Master Catalog

Two Line Element Set (TLE):
1 10935U 78056F   16338.23828694 -.00000023  00000-0 -48672-4 0  9995
2 10935  74.0262 277.5061 0030165 256.9205 211.7692 12.49859435756346
Source of the keplerian elements: AFSPC